This is the latest recevied weather packets stored in our database for station/object YD2CLX-13. If no packets are shown the sender has not sent any weather packets the latest 10 day(s).
| Time | Temp. | Humidity | Pressure | Rain* | Wind** | Luminosity | Snow |
|---|---|---|---|---|---|---|---|
| 1777727584 | 10.56° C | 68% | 798 hPa | 0 mm | - | - | - |
| 1777726968 | 10.56° C | 68% | 797.9 hPa | 0 mm | - | - | - |
| 1777726352 | 11.11° C | 68% | 797.6 hPa | 0 mm | - | - | - |
| 1777725736 | 10.56° C | 68% | 797.5 hPa | 0 mm | - | - | - |
| 1777725121 | 10.56° C | 68% | 797.4 hPa | 0 mm | - | - | - |
| 1777724505 | 11.11° C | 68% | 797.3 hPa | 0 mm | - | - | - |
| 1777723889 | 10.56° C | 68% | 797 hPa | 0 mm | - | - | - |
| 1777723277 | 10.56° C | 68% | 796.9 hPa | 0 mm | - | - | - |
| 1777722659 | 11.11° C | 68% | 796.8 hPa | 0 mm | - | - | - |
| 1777722044 | 11.11° C | 68% | 796.8 hPa | 0 mm | - | - | - |
| 1777720813 | 11.11° C | 68% | 796.8 hPa | 0 mm | - | - | - |
| 1777719580 | 11.11° C | 68% | 796.4 hPa | 0 mm | - | - | - |
| 1777718349 | 11.11° C | 68% | 796.3 hPa | 0 mm | - | - | - |
| 1777717731 | 11.11° C | 67% | 796.2 hPa | 0 mm | - | - | - |
| 1777717113 | 11.11° C | 67% | 796.2 hPa | 0 mm | - | - | - |
| 1777716496 | 11.11° C | 67% | 796.1 hPa | 0 mm | - | - | - |
| 1777715881 | 11.67° C | 67% | 796 hPa | 0 mm | - | - | - |
| 1777715266 | 12.22° C | 67% | 795.9 hPa | 0 mm | - | - | - |
| 1777714651 | 11.67° C | 67% | 796 hPa | 0 mm | - | - | - |
| 1777714036 | 12.22° C | 67% | 795.9 hPa | 0 mm | - | - | - |
| 1777713420 | 12.78° C | 67% | 795.9 hPa | 0 mm | - | - | - |
| 1777712804 | 12.78° C | 67% | 795.7 hPa | 0 mm | - | - | - |
| 1777712190 | 12.22° C | 67% | 795.7 hPa | 0 mm | - | - | - |
| 1777710960 | 12.22° C | 67% | 795.7 hPa | 0 mm | - | - | - |
| 1777709730 | 12.78° C | 66% | 795.5 hPa | 0 mm | - | - | - |
* Rain latest hour (hover to see other rain measurements)
** Current wind speed in m/s (hover to see current wind gust speed)